Weather History for KCDJ - January, 2013

Change the Weather History Date:

Monday, January 7, 2013

  Actual Average (KIRK) Record (KIRK)
Temperature  
Mean Temperature 35 °F 26 °F  
Max Temperature 45 °F 35 °F - ()
Min Temperature 25 °F 17 °F - ()
Degree Days  
Heating Degree Days 30 39  
Month to date heating degree days 273  
Since 1 July heating degree days 2616  
Cooling Degree Days 0 0  
Month to date cooling degree days 0  
Year to date cooling degree days 0  
Moisture  
Dew Point 23 °F    
Average Humidity 62    
Maximum Humidity 75    
Minimum Humidity 48    
Precipitation  
Precipitation 0.00 in 0.03 in - ()
Month to date precipitation 0.23  
Year to date precipitation 0.23  
Sea Level Pressure  
Sea Level Pressure 30.21 in    
Wind  
Wind Speed 8 mph (South)    
Max Wind Speed 15 mph    
Max Gust Speed 20 mph    
T = Trace of Precipitation, MM = Missing Value Source: NWS Daily Summary

Daily Weather History Graph

Daily Weather History Graph

Search for Another Location

Airport or City:

Trip Planner

Search our weather history database for the weather conditions in past years. The results will help you decide how hot, cold, wet, or windy it might be!

Date:

Astronomy

Jan. 07, 2013 Rise Set
Actual Time 7:35 AM CST 5:06 PM CST
Civil Twilight 7:05 AM CST 5:36 PM CST
Nautical Twilight 6:32 AM CST 6:09 PM CST
Astronomical Twilight 5:59 AM CST 6:42 PM CST
Moon 3:00 AM CST (1/7) 1:17 PM CST (1/7)
Length of Visible Light 10h 30m
Length of Day
9h 30m
Waning Crescent, 22% of the Moon is Illuminated
Jan 7
Waning Crescent
Jan 11
New
Jan 18
First Quarter
Jan 26
Full
Feb 3
Last Quarter

Hourly Weather History & Observations

Time (CST) Temp. Windchill Dew Point Humidity Pressure Visibility Wind Dir Wind Speed Gust Speed Precip Events Conditions
12:52 AM 26.1 °F 20.5 °F 19.0 °F 75% 30.33 in - South 4.6 mph - N/A   Unknown
1:52 AM 28.0 °F 21.7 °F 19.9 °F 72% 30.33 in - South 5.8 mph - N/A   Unknown
2:52 AM 28.9 °F 19.8 °F 19.9 °F 69% 30.33 in - South 10.4 mph - N/A   Unknown
3:52 AM 27.0 °F 20.5 °F 19.0 °F 72% 30.31 in - South 5.8 mph - N/A   Unknown
4:52 AM 27.0 °F 18.7 °F 19.0 °F 72% 30.30 in - South 8.1 mph - N/A   Unknown
5:52 AM 26.1 °F 18.4 °F 19.0 °F 75% 30.30 in - South 6.9 mph - N/A   Unknown
6:52 AM 25.0 °F 18.1 °F 18.0 °F 75% 30.30 in - South 5.8 mph - N/A   Unknown
7:52 AM 25.0 °F 18.1 °F 18.0 °F 75% 30.30 in - SSE 5.8 mph - N/A   Unknown
8:52 AM 30.9 °F 24.3 °F 21.0 °F 67% 30.29 in - South 6.9 mph - N/A   Unknown
9:52 AM 34.0 °F 26.0 °F 23.0 °F 64% 30.28 in - South 10.4 mph - N/A   Unknown
10:52 AM 36.0 °F 27.1 °F 23.0 °F 59% 30.27 in - SSW 13.8 mph - N/A   Unknown
11:52 AM 39.0 °F 30.6 °F 25.0 °F 57% 30.21 in - South 15.0 mph 19.6 mph N/A   Unknown
12:52 PM 42.1 °F 35.7 °F 25.0 °F 51% 30.17 in - South 11.5 mph - N/A   Unknown
1:52 PM 43.0 °F 36.8 °F 25.0 °F 49% 30.14 in - South 11.5 mph - N/A   Unknown
2:52 PM 45.0 °F 38.9 °F 26.1 °F 48% 30.13 in - South 12.7 mph - N/A   Unknown
3:52 PM 45.0 °F 38.9 °F 26.1 °F 48% 30.12 in - South 12.7 mph - N/A   Unknown
4:52 PM 42.1 °F 36.6 °F 26.1 °F 53% 30.11 in - South 9.2 mph - N/A   Unknown
5:52 PM 41.0 °F 36.4 °F 25.0 °F 53% 30.10 in - South 6.9 mph - N/A   Unknown
6:52 PM 39.0 °F 34.0 °F 25.0 °F 57% 30.12 in - South 6.9 mph - N/A   Unknown
7:52 PM 39.0 °F 34.0 °F 26.1 °F 60% 30.12 in - South 6.9 mph - N/A   Unknown
8:52 PM 37.9 °F 33.5 °F 25.0 °F 60% 30.12 in - South 5.8 mph - N/A   Unknown
9:52 PM 37.0 °F 31.6 °F 25.0 °F 62% 30.11 in - South 6.9 mph - N/A   Unknown
10:52 PM 37.0 °F 31.6 °F 25.0 °F 62% 30.10 in - South 6.9 mph - N/A   Unknown
11:52 PM 36.0 °F 31.1 °F 25.0 °F 64% 30.09 in - South 5.8 mph - N/A   Unknown